| time (UTC) | temp C | wind direction | speed KPH | gust KPH | rain 1hr cm | rain 24hr cm | rain mn cm | humidity % | barometer mb |
| 20260505184345 | 20 | 152 | 6.4 | 12.9 | 0.00 | 0.00 | 0.00 | 47 | 1015.2 |
| 20260505183847 | 20 | 152 | 6.4 | 12.9 | 0.00 | 0.00 | 0.00 | 46 | 1015.2 |
| 20260505183326 | 20 | 227 | 4.8 | 14.5 | 0.00 | 0.00 | 0.00 | 47 | 1015.2 |
| 20260505182842 | 20 | 144 | 8.0 | 14.5 | 0.00 | 0.00 | 0.00 | 46 | 1015.2 |
| 20260505182341 | 20 | 47 | 3.2 | 9.7 | 0.00 | 0.00 | 0.00 | 49 | 1015.2 |
| 20260505181903 | 20 | 117 | 4.8 | 12.9 | 0.00 | 0.00 | 0.00 | 47 | 1015.2 |
| 20260505181406 | 20 | 327 | 4.8 | 12.9 | 0.00 | 0.00 | 0.00 | 48 | 1015.2 |
| 20260505180846 | 20 | 211 | 4.8 | 12.9 | 0.00 | 0.00 | 0.00 | 50 | 1015.2 |
| 20260505180345 | 20 | 187 | 1.6 | 9.7 | 0.00 | 0.00 | 0.00 | 52 | 1015.8 |
| 20260505175827 | 20 | 187 | 4.8 | 14.5 | 0.00 | 0.00 | 0.00 | 52 | 1015.8 |
| 20260505175329 | 20 | 161 | 4.8 | 17.7 | 0.00 | 0.00 | 0.00 | 52 | 1015.8 |
| 20260505174832 | 20 | 115 | 8.0 | 17.7 | 0.00 | 0.00 | 0.00 | 52 | 1015.8 |
| 20260505174343 | 20 | 116 | 6.4 | 16.1 | 0.00 | 0.00 | 0.00 | 52 | 1015.8 |
| 20260505173845 | 21 | 192 | 6.4 | 16.1 | 0.00 | 0.00 | 0.00 | 52 | 1015.8 |
| 20260505173343 | 20 | 155 | 6.4 | 19.3 | 0.00 | 0.00 | 0.00 | 52 | 1015.9 |
| 20260505172826 | 20 | 212 | 8.0 | 17.7 | 0.00 | 0.00 | 0.00 | 50 | 1015.9 |
| 20260505172328 | 21 | 119 | 8.0 | 17.7 | 0.00 | 0.00 | 0.00 | 50 | 1015.9 |
| 20260505171826 | 20 | 123 | 9.7 | 14.5 | 0.00 | 0.00 | 0.00 | 50 | 1015.9 |
| 20260505171338 | 20 | 225 | 6.4 | 16.1 | 0.00 | 0.00 | 0.00 | 49 | 1015.9 |
| 20260505170839 | 20 | 203 | 6.4 | 16.1 | 0.00 | 0.00 | 0.00 | 49 | 1015.9 |
| 20260505170339 | 20 | 183 | 6.4 | 16.1 | 0.00 | 0.00 | 0.00 | 50 | 1015.8 |
| 20260505165842 | 20 | 138 | 8.0 | 22.5 | 0.00 | 0.00 | 0.00 | 48 | 1015.8 |
| 20260505165404 | 20 | 168 | 6.4 | 22.5 | 0.00 | 0.00 | 0.00 | 48 | 1015.8 |
| 20260505164843 | 20 | 158 | 8.0 | 17.7 | 0.00 | 0.00 | 0.00 | 48 | 1016.0 |
| 20260505164327 | 20 | 225 | 3.2 | 11.3 | 0.00 | 0.00 | 0.00 | 50 | 1016.0 |
| 20260505163829 | 20 | 178 | 6.4 | 11.3 | 0.00 | 0.00 | 0.00 | 48 | 1016.0 |
| 20260505163328 | 20 | 145 | 4.8 | 12.9 | 0.00 | 0.00 | 0.00 | 49 | 1016.0 |
| 20260505162859 | 20 | 229 | 4.8 | 17.7 | 0.00 | 0.00 | 0.00 | 50 | 1016.0 |
| 20260505162359 | 20 | 128 | 9.7 | 17.7 | 0.00 | 0.00 | 0.00 | 48 | 1016.0 |
| 20260505161901 | 19 | 156 | 9.7 | 14.5 | 0.00 | 0.00 | 0.00 | 48 | 1015.8 |
| 20260505161344 | 19 | 146 | 4.8 | 17.7 | 0.00 | 0.00 | 0.00 | 50 | 1015.8 |
| 20260505160845 | 19 | 157 | 6.4 | 17.7 | 0.00 | 0.00 | 0.00 | 49 | 1015.8 |
| 20260505160328 | 19 | 325 | 6.4 | 20.9 | 0.00 | 0.00 | 0.00 | 50 | 1015.9 |
| 20260505153346 | 19 | 132 | 8.0 | 16.1 | 0.00 | 0.00 | 0.00 | 49 | 1015.9 |
| 20260505152829 | 19 | 151 | 6.4 | 14.5 | 0.00 | 0.00 | 0.00 | 51 | 1015.9 |
| 20260505152330 | 20 | 78 | 8.0 | 14.5 | 0.00 | 0.00 | 0.00 | 49 | 1015.9 |
| 20260505151827 | 20 | 214 | 4.8 | 14.5 | 0.00 | 0.00 | 0.00 | 50 | 1016.3 |
| 20260505151340 | 20 | 188 | 3.2 | 11.3 | 0.00 | 0.00 | 0.00 | 50 | 1016.3 |
| 20260505150841 | 19 | 225 | 6.4 | 14.5 | 0.00 | 0.00 | 0.00 | 51 | 1016.3 |
| 20260505150340 | 19 | 166 | 6.4 | 14.5 | 0.00 | 0.00 | 0.00 | 51 | 1016.1 |
| 20260505140344 | 17 | 131 | 0.0 | 0.0 | 0.00 | 0.00 | 0.00 | 65 | 1015.8 |
| 20260505124827 | 10 | 134 | 0.0 | 0.0 | 0.00 | 0.00 | 0.00 | 86 | 1015.7 |
| 20260505124330 | 10 | 134 | 0.0 | 0.0 | 0.00 | 0.00 | 0.00 | 86 | 1015.7 |
| 20260505123852 | 10 | 134 | 0.0 | 0.0 | 0.00 | 0.00 | 0.00 | 86 | 1015.7 |
| 20260505123333 | 9 | 134 | 0.0 | 0.0 | 0.00 | 0.00 | 0.00 | 87 | 1015.7 |
| 20260505122828 | 9 | 134 | 0.0 | 0.0 | 0.00 | 0.00 | 0.00 | 86 | 1015.7 |
| 20260505122329 | 9 | 134 | 0.0 | 0.0 | 0.00 | 0.00 | 0.00 | 85 | 1015.7 |
| 20260505121828 | 9 | 134 | 0.0 | 0.0 | 0.00 | 0.00 | 0.00 | 85 | 1015.3 |
| 20260505121350 | 9 | 134 | 0.0 | 0.0 | 0.00 | 0.00 | 0.00 | 84 | 1015.3 |
| 20260505120830 | 9 | 134 | 0.0 | 0.0 | 0.00 | 0.00 | 0.00 | 84 | 1015.3 |
| 20260505120330 | 10 | 321 | 0.0 | 0.0 | 0.00 | 0.00 | 0.00 | 83 | 1015.2 |
| 20260505115839 | 10 | 321 | 0.0 | 0.0 | 0.00 | 0.00 | 0.00 | 83 | 1015.2 |
| 20260505115341 | 10 | 321 | 0.0 | 0.0 | 0.00 | 0.00 | 0.00 | 82 | 1015.2 |
| 20260505114841 | 10 | 321 | 0.0 | 0.0 | 0.00 | 0.00 | 0.00 | 82 | 1015.2 |
| 20260505114327 | 10 | 321 | 0.0 | 0.0 | 0.00 | 0.00 | 0.00 | 81 | 1015.2 |
| 20260505113828 | 9 | 321 | 0.0 | 0.0 | 0.00 | 0.00 | 0.00 | 80 | 1015.2 |
| 20260505113327 | 9 | 321 | 0.0 | 0.0 | 0.00 | 0.00 | 0.00 | 80 | 1015.2 |
| 20260505112840 | 9 | 321 | 0.0 | 0.0 | 0.00 | 0.00 | 0.00 | 80 | 1015.2 |
| 20260505112341 | 9 | 321 | 0.0 | 0.0 | 0.00 | 0.00 | 0.00 | 79 | 1015.2 |
| 20260505111840 | 9 | 321 | 0.0 | 0.0 | 0.00 | 0.00 | 0.00 | 79 | 1015.2 |
| 20260505111404 | 9 | 321 | 0.0 | 0.0 | 0.00 | 0.00 | 0.00 | 78 | 1015.2 |
| 20260505110845 | 9 | 321 | 0.0 | 0.0 | 0.00 | 0.00 | 0.00 | 80 | 1015.2 |
| 20260505110328 | 9 | 321 | 0.0 | 0.0 | 0.00 | 0.00 | 0.00 | 78 | 1015.0 |
| 20260505101830 | 10 | 321 | 0.0 | 0.0 | 0.00 | 0.00 | 0.00 | 76 | 1015.0 |
| 20260505101333 | 10 | 321 | 0.0 | 0.0 | 0.00 | 0.00 | 0.00 | 77 | 1015.0 |
| 20260505100835 | 10 | 321 | 0.0 | 0.0 | 0.00 | 0.00 | 0.00 | 76 | 1015.0 |
| 20260505100354 | 10 | 321 | 0.0 | 0.0 | 0.00 | 0.00 | 0.00 | 76 | 1014.7 |
| 20260505095905 | 10 | 321 | 0.0 | 0.0 | 0.00 | 0.00 | 0.00 | 75 | 1014.7 |
| 20260505095346 | 10 | 321 | 0.0 | 0.0 | 0.00 | 0.00 | 0.00 | 75 | 1014.7 |
| 20260505094905 | 11 | 321 | 0.0 | 0.0 | 0.00 | 0.00 | 0.00 | 74 | 1014.7 |
| 20260505094330 | 11 | 321 | 0.0 | 0.0 | 0.00 | 0.00 | 0.00 | 73 | 1014.7 |
| 20260505093855 | 11 | 321 | 0.0 | 0.0 | 0.00 | 0.00 | 0.00 | 72 | 1014.7 |
| 20260505093332 | 11 | 321 | 0.0 | 0.0 | 0.00 | 0.00 | 0.00 | 72 | 1014.7 |
| 20260505092836 | 11 | 321 | 0.0 | 0.0 | 0.00 | 0.00 | 0.00 | 71 | 1014.7 |
| 20260505092340 | 11 | 321 | 0.0 | 0.0 | 0.00 | 0.00 | 0.00 | 71 | 1014.7 |
| 20260505091839 | 11 | 321 | 0.0 | 0.0 | 0.00 | 0.00 | 0.00 | 71 | 1014.7 |
| 20260505091345 | 11 | 321 | 0.0 | 0.0 | 0.00 | 0.00 | 0.00 | 71 | 1014.7 |
| 20260505090848 | 11 | 321 | 0.0 | 3.2 | 0.00 | 0.00 | 0.00 | 71 | 1014.7 |
| 20260505090346 | 11 | 321 | 1.6 | 3.2 | 0.00 | 0.00 | 0.00 | 71 | 1014.7 |
| 20260505085839 | 11 | 321 | 1.6 | 3.2 | 0.00 | 0.00 | 0.00 | 71 | 1014.7 |
| 20260505085345 | 11 | 321 | 1.6 | 3.2 | 0.00 | 0.00 | 0.00 | 72 | 1014.7 |
| 20260505084844 | 11 | 323 | 0.0 | 0.0 | 0.00 | 0.00 | 0.00 | 71 | 1014.7 |
| 20260505084326 | 11 | 321 | 0.0 | 0.0 | 0.00 | 0.00 | 0.00 | 70 | 1014.7 |
| 20260505083908 | 11 | 321 | 0.0 | 0.0 | 0.00 | 0.00 | 0.00 | 71 | 1014.7 |
| 20260505083345 | 12 | 321 | 0.0 | 0.0 | 0.00 | 0.00 | 0.00 | 71 | 1014.6 |
| 20260505082830 | 12 | 321 | 0.0 | 0.0 | 0.00 | 0.00 | 0.00 | 70 | 1014.6 |
| 20260505082352 | 12 | 321 | 0.0 | 0.0 | 0.00 | 0.00 | 0.00 | 68 | 1014.6 |
| 20260505081830 | 12 | 317 | 0.0 | 8.0 | 0.00 | 0.00 | 0.00 | 69 | 1014.5 |
| 20260505081354 | 12 | 315 | 0.0 | 8.0 | 0.00 | 0.00 | 0.00 | 68 | 1014.5 |
| 20260505080834 | 12 | 11 | 1.6 | 8.0 | 0.00 | 0.00 | 0.00 | 69 | 1014.5 |
| 20260505080333 | 12 | 360 | 1.6 | 8.0 | 0.00 | 0.00 | 0.00 | 69 | 1014.4 |
| 20260505075828 | 12 | 324 | 0.0 | 0.0 | 0.00 | 0.00 | 0.00 | 70 | 1014.4 |
| 20260505075332 | 12 | 324 | 0.0 | 3.2 | 0.00 | 0.00 | 0.00 | 70 | 1014.4 |
| 20260505074831 | 12 | 324 | 1.6 | 3.2 | 0.00 | 0.00 | 0.00 | 69 | 1014.5 |
| 20260505074355 | 12 | 322 | 0.0 | 0.0 | 0.00 | 0.00 | 0.00 | 69 | 1014.5 |
| 20260505073836 | 12 | 322 | 0.0 | 0.0 | 0.00 | 0.00 | 0.00 | 69 | 1014.5 |
| 20260505073333 | 12 | 322 | 0.0 | 0.0 | 0.00 | 0.00 | 0.00 | 69 | 1014.6 |
| 20260505072835 | 12 | 322 | 0.0 | 0.0 | 0.00 | 0.00 | 0.00 | 69 | 1014.6 |
| 20260505072339 | 12 | 322 | 0.0 | 0.0 | 0.00 | 0.00 | 0.00 | 69 | 1014.6 |
| 20260505071838 | 12 | 322 | 0.0 | 0.0 | 0.00 | 0.00 | 0.00 | 69 | 1014.7 |
| 20260505071344 | 12 | 322 | 0.0 | 0.0 | 0.00 | 0.00 | 0.00 | 69 | 1014.7 |
| 20260505070829 | 12 | 322 | 0.0 | 0.0 | 0.00 | 0.00 | 0.00 | 68 | 1014.7 |
| 20260505070328 | 12 | 322 | 0.0 | 0.0 | 0.00 | 0.00 | 0.00 | 68 | 1014.7 |
| 20260505065840 | 12 | 322 | 0.0 | 0.0 | 0.00 | 0.00 | 0.00 | 68 | 1014.7 |
| 20260505065342 | 12 | 322 | 0.0 | 0.0 | 0.00 | 0.00 | 0.00 | 68 | 1014.7 |
| 20260505064840 | 12 | 322 | 0.0 | 0.0 | 0.00 | 0.00 | 0.00 | 67 | 1014.8 |
| 20260505064325 | 12 | 322 | 0.0 | 3.2 | 0.00 | 0.00 | 0.00 | 68 | 1014.8 |
| 20260505063852 | 12 | 322 | 0.0 | 3.2 | 0.00 | 0.00 | 0.00 | 68 | 1014.8 |
| 20260505063329 | 12 | 338 | 0.0 | 3.2 | 0.00 | 0.00 | 0.00 | 67 | 1015.1 |
| 20260505062834 | 12 | 338 | 0.0 | 3.2 | 0.00 | 0.00 | 0.00 | 68 | 1015.1 |
| 20260505062339 | 12 | 338 | 0.0 | 6.4 | 0.00 | 0.00 | 0.00 | 67 | 1015.1 |
| 20260505061839 | 13 | 338 | 0.0 | 6.4 | 0.00 | 0.00 | 0.00 | 67 | 1015.1 |
| 20260505061324 | 13 | 331 | 0.0 | 0.0 | 0.00 | 0.00 | 0.00 | 67 | 1015.1 |
| 20260505060830 | 13 | 331 | 0.0 | 0.0 | 0.00 | 0.00 | 0.00 | 66 | 1015.1 |
| 20260505060328 | 13 | 331 | 0.0 | 0.0 | 0.00 | 0.00 | 0.00 | 66 | 1015.0 |
| 20260505055900 | 13 | 331 | 0.0 | 0.0 | 0.00 | 0.00 | 0.00 | 65 | 1015.0 |
| 20260505055401 | 13 | 331 | 0.0 | 0.0 | 0.00 | 0.00 | 0.00 | 64 | 1015.0 |
| 20260505054840 | 13 | 331 | 0.0 | 1.6 | 0.00 | 0.00 | 0.00 | 64 | 1015.0 |
| 20260505054344 | 14 | 331 | 0.0 | 1.6 | 0.00 | 0.00 | 0.00 | 63 | 1015.0 |
| 20260505053826 | 14 | 331 | 0.0 | 6.4 | 0.00 | 0.00 | 0.00 | 62 | 1015.0 |
| 20260505053330 | 14 | 331 | 1.6 | 6.4 | 0.00 | 0.00 | 0.00 | 62 | 1014.9 |
| 20260505052841 | 14 | 342 | 1.6 | 3.2 | 0.00 | 0.00 | 0.00 | 62 | 1014.9 |
| 20260505052324 | 14 | 337 | 0.0 | 3.2 | 0.00 | 0.00 | 0.00 | 62 | 1014.9 |
| 20260505051825 | 14 | 126 | 0.0 | 3.2 | 0.00 | 0.00 | 0.00 | 62 | 1015.0 |
| 20260505051329 | 15 | 167 | 0.0 | 3.2 | 0.00 | 0.00 | 0.00 | 62 | 1015.0 |
| 20260505050829 | 15 | 167 | 0.0 | 3.2 | 0.00 | 0.00 | 0.00 | 62 | 1015.0 |
| 20260505050329 | 15 | 177 | 0.0 | 3.2 | 0.00 | 0.00 | 0.00 | 62 | 1015.0 |
| 20260505041333 | 14 | 310 | 1.6 | 3.2 | 0.00 | 0.00 | 0.00 | 65 | 1015.2 |
| 20260505040839 | 14 | 310 | 0.0 | 3.2 | 0.00 | 0.00 | 0.00 | 66 | 1015.2 |
| 20260505040358 | 13 | 32 | 0.0 | 0.0 | 0.00 | 0.00 | 0.00 | 66 | 1015.2 |
| 20260505035827 | 13 | 32 | 0.0 | 0.0 | 0.00 | 0.00 | 0.00 | 67 | 1015.2 |
| 20260505035329 | 13 | 17 | 0.0 | 0.0 | 0.00 | 0.00 | 0.00 | 67 | 1015.2 |
| 20260505034848 | 13 | 355 | 0.0 | 0.0 | 0.00 | 0.00 | 0.00 | 68 | 1015.3 |
| 20260505034331 | 13 | 355 | 0.0 | 0.0 | 0.00 | 0.00 | 0.00 | 69 | 1015.3 |
| 20260505033832 | 13 | 355 | 0.0 | 0.0 | 0.00 | 0.00 | 0.00 | 68 | 1015.3 |
| 20260505033331 | 13 | 355 | 0.0 | 0.0 | 0.00 | 0.00 | 0.00 | 68 | 1015.3 |
| 20260505032836 | 13 | 355 | 0.0 | 0.0 | 0.00 | 0.00 | 0.00 | 68 | 1015.3 |
| 20260505032338 | 13 | 355 | 0.0 | 0.0 | 0.00 | 0.00 | 0.00 | 68 | 1015.3 |
| 20260505031840 | 13 | 355 | 0.0 | 0.0 | 0.00 | 0.00 | 0.00 | 69 | 1015.4 |
| 20260505031346 | 13 | 355 | 0.0 | 0.0 | 0.00 | 0.00 | 0.00 | 68 | 1015.4 |
| 20260505030826 | 14 | 355 | 0.0 | 0.0 | 0.00 | 0.00 | 0.00 | 67 | 1015.4 |
| 20260505030329 | 14 | 355 | 0.0 | 0.0 | 0.00 | 0.00 | 0.00 | 67 | 1015.3 |
| 20260505025834 | 14 | 355 | 0.0 | 0.0 | 0.00 | 0.00 | 0.00 | 67 | 1015.3 |
| 20260505025355 | 14 | 355 | 0.0 | 0.0 | 0.00 | 0.00 | 0.00 | 67 | 1015.3 |
| 20260505024837 | 14 | 355 | 0.0 | 0.0 | 0.00 | 0.00 | 0.00 | 67 | 1015.2 |
| 20260505024341 | 14 | 355 | 0.0 | 0.0 | 0.00 | 0.00 | 0.00 | 67 | 1015.2 |
| 20260505023843 | 14 | 355 | 0.0 | 0.0 | 0.00 | 0.00 | 0.00 | 67 | 1015.2 |
| 20260505023342 | 14 | 355 | 0.0 | 0.0 | 0.00 | 0.00 | 0.00 | 67 | 1015.2 |
| 20260505022826 | 14 | 360 | 0.0 | 0.0 | 0.00 | 0.00 | 0.00 | 67 | 1015.2 |
| 20260505022332 | 15 | 360 | 0.0 | 0.0 | 0.00 | 0.00 | 0.00 | 66 | 1015.2 |
| 20260505021830 | 15 | 360 | 0.0 | 0.0 | 0.00 | 0.00 | 0.00 | 65 | 1015.2 |
| 20260505021342 | 15 | 360 | 0.0 | 0.0 | 0.00 | 0.00 | 0.00 | 64 | 1015.2 |
| 20260505020843 | 15 | 360 | 0.0 | 0.0 | 0.00 | 0.00 | 0.00 | 64 | 1015.2 |
| 20260505020343 | 15 | 360 | 0.0 | 0.0 | 0.00 | 0.00 | 0.00 | 63 | 1015.1 |
| 20260505015827 | 15 | 360 | 0.0 | 0.0 | 0.00 | 0.00 | 0.00 | 63 | 1015.1 |
| 20260505015329 | 15 | 360 | 0.0 | 0.0 | 0.00 | 0.00 | 0.00 | 62 | 1015.1 |
| 20260505014831 | 15 | 324 | 0.0 | 1.6 | 0.00 | 0.00 | 0.00 | 62 | 1015.0 |
| 20260505014335 | 15 | 334 | 0.0 | 1.6 | 0.00 | 0.00 | 0.00 | 62 | 1015.0 |
| 20260505013837 | 15 | 333 | 0.0 | 3.2 | 0.00 | 0.00 | 0.00 | 62 | 1015.0 |
| 20260505013336 | 16 | 333 | 1.6 | 6.4 | 0.00 | 0.00 | 0.00 | 61 | 1014.8 |
| 20260505012841 | 16 | 333 | 1.6 | 6.4 | 0.00 | 0.00 | 0.00 | 61 | 1014.8 |
| 20260505012343 | 16 | 331 | 0.0 | 3.2 | 0.00 | 0.00 | 0.00 | 60 | 1014.8 |
| 20260505011842 | 16 | 325 | 0.0 | 3.2 | 0.00 | 0.00 | 0.00 | 60 | 1014.7 |
| 20260505011326 | 16 | 325 | 1.6 | 3.2 | 0.00 | 0.00 | 0.00 | 59 | 1014.7 |
| 20260505010828 | 16 | 24 | 0.0 | 1.6 | 0.00 | 0.00 | 0.00 | 59 | 1014.7 |
| 20260505010331 | 16 | 24 | 0.0 | 3.2 | 0.00 | 0.00 | 0.00 | 59 | 1014.7 |
| 20260505005843 | 16 | 24 | 0.0 | 3.2 | 0.00 | 0.00 | 0.00 | 58 | 1014.7 |
| 20260505005345 | 17 | 25 | 1.6 | 3.2 | 0.00 | 0.00 | 0.00 | 58 | 1014.7 |
| 20260505004844 | 17 | 28 | 0.0 | 1.6 | 0.00 | 0.00 | 0.00 | 57 | 1014.6 |
| 20260505004329 | 17 | 28 | 0.0 | 3.2 | 0.00 | 0.00 | 0.00 | 57 | 1014.6 |
| 20260505003832 | 17 | 28 | 0.0 | 3.2 | 0.00 | 0.00 | 0.00 | 57 | 1014.6 |
| 20260505003351 | 17 | 332 | 0.0 | 3.2 | 0.00 | 0.00 | 0.00 | 57 | 1014.5 |
| 20260505002842 | 17 | 333 | 0.0 | 3.2 | 0.00 | 0.00 | 0.00 | 56 | 1014.5 |
| 20260505002342 | 17 | 67 | 0.0 | 0.0 | 0.00 | 0.00 | 0.00 | 56 | 1014.5 |
| 20260505001822 | 17 | 14 | 0.0 | 0.0 | 0.00 | 0.00 | 0.00 | 56 | 1014.5 |
| 20260505001337 | 17 | 14 | 0.0 | 0.0 | 0.00 | 0.00 | 0.00 | 56 | 1014.5 |
| 20260505000838 | 17 | 132 | 0.0 | 0.0 | 0.00 | 0.00 | 0.00 | 55 | 1014.5 |
| 20260505000338 | 17 | 131 | 0.0 | 0.0 | 0.00 | 0.00 | 0.00 | 56 | 1014.2 |
| 20260504235843 | 18 | 131 | 0.0 | 3.2 | 0.00 | 0.00 | 0.00 | 55 | 1014.2 |
| 20260504235345 | 18 | 131 | 0.0 | 3.2 | 0.00 | 0.00 | 0.00 | 55 | 1014.2 |
| 20260504234843 | 18 | 124 | 0.0 | 6.4 | 0.00 | 0.00 | 0.00 | 54 | 1014.2 |
| 20260504234349 | 18 | 124 | 1.6 | 6.4 | 0.00 | 0.00 | 0.00 | 54 | 1014.2 |
| 20260504233829 | 18 | 309 | 1.6 | 4.8 | 0.00 | 0.00 | 0.00 | 53 | 1014.2 |
| 20260504233346 | 18 | 143 | 0.0 | 11.3 | 0.00 | 0.00 | 0.00 | 54 | 1014.1 |
| 20260504232837 | 18 | 141 | 3.2 | 11.3 | 0.00 | 0.00 | 0.00 | 54 | 1014.1 |
| 20260504232338 | 18 | 182 | 1.6 | 8.0 | 0.00 | 0.00 | 0.00 | 53 | 1014.1 |
| 20260504231857 | 18 | 146 | 1.6 | 8.0 | 0.00 | 0.00 | 0.00 | 53 | 1014.1 |
| 20260504231326 | 18 | 123 | 0.0 | 6.4 | 0.00 | 0.00 | 0.00 | 53 | 1014.1 |
| 20260504230828 | 18 | 123 | 0.0 | 9.7 | 0.00 | 0.00 | 0.00 | 53 | 1014.1 |
| 20260504230326 | 18 | 140 | 3.2 | 9.7 | 0.00 | 0.00 | 0.00 | 52 | 1014.0 |
| 20260504225831 | 18 | 177 | 4.8 | 9.7 | 0.00 | 0.00 | 0.00 | 52 | 1014.0 |
| 20260504225333 | 19 | 123 | 4.8 | 11.3 | 0.00 | 0.00 | 0.00 | 52 | 1014.0 |
| 20260504224852 | 19 | 218 | 4.8 | 11.3 | 0.00 | 0.00 | 0.00 | 51 | 1014.1 |
| 20260504224344 | 19 | 110 | 1.6 | 9.7 | 0.00 | 0.00 | 0.00 | 51 | 1014.1 |
| 20260504223844 | 19 | 198 | 4.8 | 8.0 | 0.00 | 0.00 | 0.00 | 50 | 1014.1 |
| 20260504223342 | 19 | 148 | 1.6 | 9.7 | 0.00 | 0.00 | 0.00 | 50 | 1014.1 |
| 20260504222847 | 19 | 326 | 1.6 | 9.7 | 0.00 | 0.00 | 0.00 | 50 | 1014.1 |
| 20260504222328 | 20 | 207 | 4.8 | 12.9 | 0.00 | 0.00 | 0.00 | 50 | 1014.1 |
| 20260504221846 | 20 | 150 | 4.8 | 12.9 | 0.00 | 0.00 | 0.00 | 50 | 1014.1 |
| 20260504221330 | 20 | 164 | 3.2 | 9.7 | 0.00 | 0.00 | 0.00 | 50 | 1014.1 |
| 20260504220831 | 20 | 139 | 3.2 | 9.7 | 0.00 | 0.00 | 0.00 | 49 | 1014.1 |
| 20260504220350 | 20 | 134 | 4.8 | 9.7 | 0.00 | 0.00 | 0.00 | 49 | 1013.9 |
| 20260504215832 | 20 | 148 | 3.2 | 9.7 | 0.00 | 0.00 | 0.00 | 49 | 1013.9 |
| 20260504215334 | 20 | 132 | 3.2 | 9.7 | 0.00 | 0.00 | 0.00 | 48 | 1013.9 |
| 20260504214853 | 20 | 194 | 4.8 | 9.7 | 0.00 | 0.00 | 0.00 | 48 | 1013.8 |
| 20260504214337 | 20 | 128 | 3.2 | 11.3 | 0.00 | 0.00 | 0.00 | 48 | 1013.8 |
| 20260504213838 | 20 | 181 | 4.8 | 12.9 | 0.00 | 0.00 | 0.00 | 48 | 1013.8 |
| 20260504213337 | 20 | 174 | 8.0 | 12.9 | 0.00 | 0.00 | 0.00 | 47 | 1013.7 |
| 20260504212841 | 20 | 157 | 4.8 | 9.7 | 0.00 | 0.00 | 0.00 | 47 | 1013.7 |
| 20260504212343 | 20 | 113 | 4.8 | 9.7 | 0.00 | 0.00 | 0.00 | 47 | 1013.7 |
| 20260504211826 | 21 | 157 | 1.6 | 9.7 | 0.00 | 0.00 | 0.00 | 48 | 1013.6 |
| 20260504211339 | 21 | 142 | 3.2 | 9.7 | 0.00 | 0.00 | 0.00 | 46 | 1013.6 |
| 20260504210841 | 21 | 139 | 4.8 | 12.9 | 0.00 | 0.00 | 0.00 | 47 | 1013.6 |
| 20260504210341 | 21 | 165 | 4.8 | 12.9 | 0.00 | 0.00 | 0.00 | 46 | 1013.6 |
| 20260504205845 | 21 | 155 | 3.2 | 9.7 | 0.00 | 0.00 | 0.00 | 46 | 1013.6 |
| 20260504205326 | 21 | 329 | 3.2 | 8.0 | 0.00 | 0.00 | 0.00 | 46 | 1013.6 |
| 20260504204827 | 21 | 109 | 4.8 | 11.3 | 0.00 | 0.00 | 0.00 | 45 | 1013.6 |
| 20260504204343 | 21 | 147 | 4.8 | 14.5 | 0.00 | 0.00 | 0.00 | 45 | 1013.6 |
| 20260504203827 | 22 | 160 | 3.2 | 14.5 | 0.00 | 0.00 | 0.00 | 44 | 1013.6 |
| 20260504203347 | 22 | 146 | 4.8 | 9.7 | 0.00 | 0.00 | 0.00 | 45 | 1013.6 |
| 20260504202830 | 22 | 124 | 1.6 | 11.3 | 0.00 | 0.00 | 0.00 | 45 | 1013.6 |
| 20260504202332 | 22 | 157 | 4.8 | 11.3 | 0.00 | 0.00 | 0.00 | 45 | 1013.6 |
| 20260504201832 | 22 | 128 | 6.4 | 11.3 | 0.00 | 0.00 | 0.00 | 44 | 1013.7 |
| 20260504201338 | 22 | 182 | 3.2 | 14.5 | 0.00 | 0.00 | 0.00 | 44 | 1013.7 |
| 20260504200838 | 22 | 154 | 3.2 | 14.5 | 0.00 | 0.00 | 0.00 | 43 | 1013.7 |
| 20260504200358 | 22 | 29 | 3.2 | 8.0 | 0.00 | 0.00 | 0.00 | 45 | 1014.0 |
| 20260504195841 | 22 | 157 | 3.2 | 9.7 | 0.00 | 0.00 | 0.00 | 45 | 1014.0 |
| 20260504195343 | 22 | 355 | 3.2 | 16.1 | 0.00 | 0.00 | 0.00 | 43 | 1014.0 |
| 20260504194827 | 22 | 144 | 4.8 | 16.1 | 0.00 | 0.00 | 0.00 | 43 | 1014.1 |
| 20260504194343 | 22 | 188 | 4.8 | 12.9 | 0.00 | 0.00 | 0.00 | 43 | 1014.1 |
| 20260504193844 | 22 | 184 | 4.8 | 9.7 | 0.00 | 0.00 | 0.00 | 42 | 1014.1 |
| 20260504193344 | 22 | 161 | 1.6 | 8.0 | 0.00 | 0.00 | 0.00 | 42 | 1014.1 |
| 20260504192830 | 22 | 171 | 0.0 | 14.5 | 0.00 | 0.00 | 0.00 | 44 | 1014.1 |
| 20260504192351 | 22 | 180 | 9.7 | 14.5 | 0.00 | 0.00 | 0.00 | 41 | 1014.1 |
| 20260504191832 | 22 | 218 | 6.4 | 12.9 | 0.00 | 0.00 | 0.00 | 42 | 1014.4 |
| 20260504191345 | 22 | 161 | 6.4 | 14.5 | 0.00 | 0.00 | 0.00 | 41 | 1014.4 |
| 20260504190906 | 22 | 155 | 4.8 | 11.3 | 0.00 | 0.00 | 0.00 | 41 | 1014.4 |
| 20260504190344 | 22 | 200 | 4.8 | 14.5 | 0.00 | 0.00 | 0.00 | 39 | 1014.6 |
| 20260504185829 | 22 | 207 | 1.6 | 11.3 | 0.00 | 0.00 | 0.00 | 39 | 1014.6 |
| 20260504185331 | 22 | 151 | 3.2 | 9.7 | 0.00 | 0.00 | 0.00 | 40 | 1014.6 |
| 20260504184829 | 22 | 134 | 4.8 | 9.7 | 0.00 | 0.00 | 0.00 | 37 | 1014.6 |